Regional Weather Roundup
Issued by NWS

Home | Current Version | Previous Version | Graphics & Text | Print | Product List | Glossary On
Versions: 1 2 3 4 5 6 7 8 9 10 11 12 13 14 15 16 17 18 19 20 21 22 23 24 25 26 27 28 29 30 31 32 33 34 35 36 37 38 39 40 41 42 43 44 45 46 47 48 49 50
000
ASUS45 KABQ 021110
RWRNM
WEATHER ROUNDUP FOR NEW MEXICO
NATIONAL WEATHER SERVICE ALBUQUERQUE NM
500 AM MDT THU OCT 02 2014

NOTE: "FAIR" MEANS FEW OR NO CLOUDS BELOW 12,000 FEET AGL WITH NO
       SIGNIFICANT WEATHER OR OBSTRUCTIONS TO VISION.

      THIS PRODUCT IS RELEASED AS TWO VERSIONS.  ONE VERSION NEAR
      THE TOP OF THE HOUR CONTAINING PRELIMINARY DATA FROM ALBUQUERQUE
      AND OTHER STATIONS.  A FINAL VERSION WITH ADDITIONAL DATA IS
      ISSUED ABOUT 10 MINUTES AFTER THE HOUR.

NMZ501-503-504-510>518-021200-
NORTHWEST PLATEAU/NORTHCENTRAL MOUNTAINS

CITY           SKY/WX    TMP DP  RH WIND       PRES   REMARKS
FARMINGTON     CLEAR     43  29  57 W12       30.14R
LOS ALAMOS     PTCLDY    47  30  51 W9        30.14R
SANTA FE       CLEAR     47  33  58 W5        30.09R
TAOS           PTCLDY    37  28  70 NW9       30.12R WCI  31
ANGEL FIRE     CLOUDY    37  32  80 CALM      30.14R

$$
NMZ402-403-502-505>509-021200-
WESTCENTRAL MOUNTAINS/SOUTHWEST MOUNTAINS

CITY           SKY/WX    TMP DP  RH WIND       PRES   REMARKS
GALLUP         PTCLDY    37  29  72 S3        30.20R
GRANTS         CLEAR     37  25  60 CALM      30.21R
SILVER CITY    CLEAR     48  36  61 N8        30.11R

$$
NMZ407-409-411-412-021200-
SOUTHERN DESERTS

CITY           SKY/WX    TMP DP  RH WIND       PRES   REMARKS
LORDSBURG      FAIR      48  36  61 MISG      30.06R
DEMING         CLEAR     57  37  47 W8        30.04R
LAS CRUCES     CLEAR     55  38  52 W12       30.03R
HOLLOMAN AFB   CLEAR     52  38  59 NE6       29.97R
ALAMOGORDO     CLEAR     55  34  44 NE6       29.99R
T OR C         CLEAR     59  36  42 NW7       30.04R

$$
NMZ519>523-021200-
CENTRAL VALLEYS/CENTRAL HIGHLANDS

CITY           SKY/WX    TMP DP  RH WIND       PRES   REMARKS
ALBUQUERQUE    CLEAR     56  33  42 NW16      30.09R
DOUBLE EAGLE   CLEAR     48  34  57 NW9       30.12R
MORIARTY ARPT  FAIR      43  33  67 NW5       30.10R
CLINES CORNERS CLEAR     45  34  65 NW15      30.08R
BELEN          NOT AVBL
SOCORRO        FAIR      58  35  42 CALM      30.06R

$$
NMZ524>526-539-540-021200-
SOUTHCENTRAL MOUNTAINS

CITY           SKY/WX    TMP DP  RH WIND       PRES   REMARKS
RUIDOSO        NOT AVBL

$$
NMZ527>531-021200-
NORTHEAST HIGHLANDS/NORTHEAST PLAINS

CITY           SKY/WX    TMP DP  RH WIND       PRES   REMARKS
LAS VEGAS      CLEAR     48  31  51 N3        30.07R
RATON          CLEAR     44  35  70 N14G25    30.07R
CLAYTON        CLOUDY    49  39  68 N24G35    30.00R

$$
NMZ532>537-021200-
EASTCENTRAL PLAINS

CITY           SKY/WX    TMP DP  RH WIND       PRES   REMARKS
TUCUMCARI      MOCLDY    59  43  55 NE10      29.94R
CANNON AFB     PTCLDY    57  40  53 NE14      29.92R
CLOVIS AIRPORT   N/A     55  41  58 N13       29.94R

$$
NMZ028-029-538-021200-
SOUTHEAST PLAINS

CITY           SKY/WX    TMP DP  RH WIND       PRES   REMARKS
ROSWELL        CLEAR     58  42  55 NW5       29.92R
CARLSBAD       CLEAR     65  40  39 W15       29.89R


$$



USA.gov is the U.S. government's official web portal to all federal, state and local government web resources and services.